GW3181 Weather Reports


Display with metric or nautical units.
time (UTC)temp
F
wind
direction
speed
MPH
gust
MPH
rain 1hr
in
rain 24hr
in
rain mn
in
humidity
%
barometer
mb
20260505075519 45 223 0.0 2.0 0.00 0.16 0.00 93
20260505074520 45 204 0.0 2.0 0.00 0.16 0.00 93
20260505073539 45 0.0 0.0 0.00 0.16 0.00 93
20260505072516 45 145 0.0 1.0 0.00 0.16 0.00 93
20260505071517 45 214 0.0 1.0 0.00 0.16 0.00 93
20260505070540 45 0.0 0.0 0.00 0.16 0.00 93
20260505065520 45 189 0.0 2.0 0.00 0.16 0.00 93
20260505064517 45 140 0.0 2.0 0.00 0.16 0.00 93
20260505063517 45 151 1.0 3.0 0.00 0.16 0.00 93
20260505062517 45 192 0.0 2.0 0.00 0.16 0.00 94
20260505061517 45 225 0.0 0.0 0.00 0.16 0.00 93
20260505060518 45 0.0 0.0 0.00 0.16 0.00 93
20260505055520 45 254 0.0 0.0 0.00 0.16 0.16 92
20260505054518 45 0.0 0.0 0.01 0.16 0.16 92
20260505053518 45 0.0 0.0 0.02 0.16 0.16 91
20260505052518 46 349 0.0 1.0 0.03 0.16 0.16 91
20260505051518 46 0.0 0.0 0.05 0.16 0.16 92
20260505050518 46 0.0 0.0 0.07 0.16 0.16 91
20260505041519 46 0.0 0.0 0.07 0.11 0.11 90 1013.9
20260505040519 46 315 0.0 1.0 0.07 0.10 0.10 89 1013.9
20260505035519 47 348 0.0 2.0 0.07 0.10 0.10 89 1013.7
20260505034516 47 24 0.0 1.0 0.06 0.08 0.08 87 1013.6
20260505033519 48 1 0.0 0.0 0.04 0.06 0.06 85
20260505032519 48 166 0.0 2.0 0.02 0.04 0.04 83
20260505031520 50 98 1.0 3.0 0.01 0.04 0.04 80
20260505030520 50 90 1.0 4.0 0.00 0.03 0.03 71
20260505025517 50 97 1.0 6.0 0.00 0.02 0.02 70
20260505024517 50 66 0.0 5.0 0.00 0.02 0.02 70
20260505023517 50 77 1.0 4.0 0.00 0.02 0.02 70
20260505022520 50 205 0.0 1.0 0.00 0.02 0.02 71
20260505021520 50 26 0.0 1.0 0.00 0.02 0.02 72
20260505020520 51 0.0 0.0 0.00 0.02 0.02 68
20260505015517 51 157 0.0 0.0 0.01 0.02 0.02 69
20260505014537 52 228 0.0 2.0 0.02 0.02 0.02 66
20260505013517 52 189 0.0 2.0 0.02 0.02 0.02 68
20260505012517 52 248 0.0 2.0 0.02 0.02 0.02 68
20260505011521 53 205 0.0 3.0 0.02 0.02 0.02 70
20260505010558 54 342 0.0 1.0 0.02 0.02 0.02 67
20260505005538 55 3 1.0 5.0 0.01 0.01 0.01 57
20260505004558 56 315 0.0 2.0 0.00 0.00 0.00 53
20260505003518 56 337 0.0 3.0 0.00 0.00 0.00 53
20260505002519 58 320 1.0 7.0 0.00 0.00 0.00 47
20260505001518 58 324 1.0 4.0 0.00 0.00 0.00 45
20260505000519 58 310 1.0 3.0 0.00 0.00 0.00 44
20260504235519 59 309 1.0 4.0 0.00 0.00 0.00 43
20260504234539 59 326 1.0 5.0 0.00 0.00 0.00 41
20260504233540 60 350 1.0 5.0 0.00 0.00 0.00 40
20260504232516 61 308 1.0 4.0 0.00 0.00 0.00 39
20260504231516 61 343 1.0 6.0 0.00 0.00 0.00 39
20260504230520 62 315 1.0 4.0 0.00 0.00 0.00 38
20260504225540 62 336 2.0 6.0 0.00 0.00 0.00 38
20260504224520 62 330 2.0 6.0 0.00 0.00 0.00 37
20260504223520 64 348 2.0 7.0 0.00 0.00 0.00 36
20260504222517 66 350 3.0 14.0 0.00 0.00 0.00 29
20260504221538 67 343 1.0 3.0 0.00 0.00 0.00 29
20260504220517 67 21 1.0 4.0 0.00 0.00 0.00 29
20260504215517 67 18 1.0 7.0 0.00 0.00 0.00 29
20260504214520 67 331 1.0 6.0 0.00 0.00 0.00 29
20260504213541 66 343 1.0 3.0 0.00 0.00 0.00 31
20260504212517 67 4 1.0 5.0 0.00 0.00 0.00 31
20260504211537 67 7 1.0 5.0 0.00 0.00 0.00 31
20260504210518 68 343 1.0 6.0 0.00 0.00 0.00 30
20260504205518 68 352 3.0 8.0 0.00 0.00 0.00 31
20260504204518 66 333 2.0 6.0 0.00 0.00 0.00 32
20260504203518 65 306 2.0 5.0 0.00 0.00 0.00 33
20260504202538 65 340 2.0 4.0 0.00 0.00 0.00 32
20260504201539 65 333 2.0 6.0 0.00 0.00 0.00 32
20260504200519 66 340 2.0 7.0 0.00 0.00 0.00 32
20260504195519 67 324 2.0 7.0 0.00 0.00 0.00 31
20260504194539 66 344 2.0 9.0 0.00 0.00 0.00 31
20260504193516 65 335 2.0 6.0 0.00 0.00 0.00 33
20260504192539 66 3 4.0 14.0 0.00 0.00 0.00 32
20260504191520 69 358 3.0 7.0 0.00 0.00 0.00 30
20260504190540 69 329 1.0 5.0 0.00 0.00 0.00 30
20260504185519 67 311 2.0 4.0 0.00 0.00 0.00 31
20260504184517 67 340 3.0 11.0 0.00 0.00 0.00 30
20260504183517 68 352 2.0 6.0 0.00 0.00 0.00 29
20260504182517 70 315 2.0 6.0 0.00 0.00 0.00 26
20260504181520 73 18 3.0 9.0 0.00 0.00 0.00 26
20260504180520 74 7 2.0 6.0 0.00 0.00 0.00 24
20260504175520 74 7 2.0 7.0 0.00 0.00 0.00 21
20260504174518 75 91 2.0 6.0 0.00 0.00 0.00 22
20260504173551 75 302 2.0 5.0 0.00 0.00 0.00 22
20260504172538 74 28 1.0 3.0 0.00 0.00 0.00 24
20260504171518 73 157 1.0 4.0 0.00 0.00 0.00 24
20260504170518 71 15 1.0 5.0 0.00 0.00 0.00 25
20260504150539 57 103 3.0 7.0 0.00 0.00 0.00 33
20260504140520 50 65 3.0 8.0 0.00 0.00 0.00 40
20260504130518 48 52 3.0 7.0 0.00 0.00 0.00 42
20260504110519 49 74 3.0 9.0 0.00 0.00 0.00 40
20260504100517 48 81 3.0 7.0 0.00 0.00 0.00 42
20260504081518 52 115 1.0 5.0 0.00 0.00 0.00 39
20260504080518 51 64 2.0 7.0 0.00 0.00 0.00 39